[[{"header":{"parameterUnit":"m.s-1","parameterCategory":1,"la1":30.2991,"la2":30.254,"lo1":-89.0895,"lo2":-89.0444,"dy":0.0017,"dx":0.0017,"nx":28,"ny":28,"refTime":"2025-11-12T03:00:00:Z","depth":0,"parameterNumber":2,"parameterNumberName":"U-component_of_WINDS"},"data":[0,0,0,0,0,0,0,0,0,0,0,0,0,0,0,0,0,0,0,0,0,0,0,0,0,0,0,0,0,0,0,0,0,0,0,0,0,0,0,0,0,0,0,0,0,0,0,0,0,0,0,0,0,0,0,0,0,0,0.6782,0.6782,0,0.6752,0.6752,0.6751,0.6738,0.6738,0.6738,0.6738,0.6702,0.6701,0.67,0,0,0,0,0,0,0,0,0,0,0,0,0,0.6825,0.6825,0.6782,0.6782,0.6782,0.6752,0.6751,0.6751,0.6738,0.6738,0.6738,0.6738,0.6702,0.6701,0.67,0,0,0,0,0,0,0,0,0,0,0,0,0,0.6802,0.6824,0.6782,0.6772,0.677,0.6752,0.6751,0.6751,0.6738,0.6738,0.6738,0.6738,0.6703,0.6701,0.67,0.6688,0,0,0.6695,0.6694,0,0,0,0,0,0,0,0,0.6803,0.68,0.6773,0.6772,0.6771,0.6749,0.6753,0.673,0.6738,0.675,0.6738,0.6738,0.6717,0.6714,0.6708,0.6687,0.6685,0.6695,0.6694,0.6693,0.6693,0,0,0,0,0,0,0,0.6805,0.6801,0.677,0.6773,0.6771,0.6767,0.6764,0.6749,0.6733,0.6749,0.6748,0.6745,0.6716,0.671,0.6707,0.6685,0.6695,0.6694,0.6693,0.6692,0.6653,0.6653,0,0,0,0,0,0,0.6809,0.6803,0.6771,0.6769,0.6788,0.6766,0.6762,0.6756,0.6733,0.673,0.6745,0.6744,0.6712,0.6709,0.6706,0.6692,0.6693,0.6692,0.6691,0.6653,0.6653,0.6653,0,0,0,0,0,0,0.681,0.6806,0.6772,0.6786,0.6781,0.6765,0.6758,0.6755,0.6749,0.673,0.6727,0.6741,0.6712,0.6708,0.6693,0.6691,0.6691,0.669,0.6653,0.6653,0.6653,0.6664,0,0,0,0,0,0,0.6811,0.6807,0.6803,0.6786,0.6781,0.6761,0.6758,0.6754,0.6747,0.6746,0.6726,0.6723,0.6712,0.6696,0.6692,0.6688,0.6689,0.6653,0.6653,0.6653,0.6664,0.6664,0.6664,0,0,0,0,0,0.6813,0.6806,0.6803,0.6799,0.6776,0.6761,0.6758,0.6747,0.6746,0.6742,0.6731,0.6723,0.6692,0.6694,0.669,0.6686,0.6653,0.6653,0.6653,0.6663,0.6664,0.6664,0,0,0,0,0,0,0.6821,0.6804,0.68,0.6788,0.6777,0.6759,0.6754,0.6748,0.6735,0.6735,0.672,0.6716,0.6703,0.6693,0.6696,0.6674,0.6672,0.6671,0.6681,0.6682,0.6682,0.6685,0.6687,0,0,0,0,0,0.6822,0.6813,0.6797,0.6788,0.6783,0.6769,0.6762,0.6755,0.6742,0.6737,0.6724,0.671,0.6697,0.6689,0.6676,0.6662,0.6657,0.6657,0.6658,0.6658,0.6657,0.6649,0.6649,0.6652,0.6652,0.6652,0,0,0.6823,0.6812,0.6807,0.679,0.678,0.677,0.6765,0.6754,0.6747,0.6735,0.6721,0.6711,0.6694,0.6681,0.6674,0.6672,0.6655,0.6658,0.6658,0.6657,0.6649,0.6649,0.6649,0.6652,0.6652,0.6652,0,0,0.682,0.6811,0.6803,0.6794,0.678,0.6771,0.6769,0.6753,0.6747,0.6733,0.6724,0.6713,0.6691,0.668,0.6672,0.6666,0.6659,0.6662,0.6663,0.6656,0.6656,0.6656,0.6654,0.6653,0.6661,0.6661,0.6661,0,0.6822,0.6808,0.6799,0.6789,0.6782,0.6772,0.6764,0.6755,0.6736,0.6731,0.673,0.6703,0.6691,0.6674,0.6673,0.6666,0.6663,0.6664,0.6657,0.6657,0.6656,0.6654,0.6653,0.6661,0.6661,0.6661,0.6661,0,0.6812,0.6803,0.6797,0.6783,0.6774,0.6765,0.6753,0.6746,0.6739,0.673,0.6716,0.6702,0.6687,0.6682,0.6675,0.6665,0.6664,0.666,0.6657,0.6657,0.6655,0.6654,0.6662,0.6662,0.6662,0.6662,0,0,0.6813,0.6794,0.6792,0.6786,0.677,0.6762,0.6752,0.6738,0.6733,0.672,0.6711,0.6693,0.669,0.668,0.6672,0.6666,0.6662,0.6662,0.6662,0.6663,0.665,0.6654,0.6653,0.6658,0.6658,0.6657,0.6652,0,0.6808,0.6792,0.6783,0.677,0.6761,0.6752,0.6744,0.6733,0.6724,0.6714,0.6704,0.6692,0.6688,0.6682,0.6676,0.6664,0.666,0.6664,0.6648,0.6648,0.6653,0.6652,0.6655,0.665,0.6651,0.6651,0.6651,0,0.68,0.679,0.6777,0.6763,0.6759,0.6751,0.6739,0.673,0.6717,0.6711,0.6701,0.6693,0.6681,0.668,0.6663,0.6667,0.666,0.6653,0.6653,0.665,0.6649,0.665,0.6648,0.6648,0.6649,0.6649,0.6649,0,0.6802,0.6785,0.6775,0.677,0.6754,0.6749,0.6741,0.6729,0.6722,0.671,0.6705,0.6691,0.6684,0.6673,0.6661,0.6661,0.6646,0.6643,0.664,0.664,0.6637,0.6637,0.6635,0.6632,0.6632,0.6632,0.6632,0,0.6798,0.679,0.6777,0.677,0.6761,0.6751,0.6742,0.6733,0.6722,0.6714,0.6705,0.6696,0.6682,0.6671,0.6662,0.6649,0.6646,0.664,0.6638,0.6641,0.6642,0.6636,0.6636,0.6632,0.6632,0.6632,0.6632,0,0.6799,0.679,0.6778,0.6764,0.6761,0.6755,0.6742,0.6735,0.6727,0.6716,0.6713,0.6699,0.6686,0.6674,0.6656,0.665,0.6637,0.6634,0.6642,0.6641,0.6639,0.6639,0.6632,0.6631,0.663,0.663,0.663,0,0.6796,0.679,0.6777,0.6771,0.6765,0.6755,0.6748,0.6738,0.6731,0.6716,0.6711,0.6698,0.6687,0.6667,0.6655,0.6641,0.6638,0.6636,0.6635,0.6639,0.6638,0.6638,0.6638,0.6636,0.6636,0.6637,0.6637,0,0.6793,0.6789,0.678,0.677,0.6763,0.6754,0.6744,0.674,0.6727,0.6719,0.6708,0.6699,0.6683,0.667,0.6655,0.6646,0.6639,0.6637,0.6636,0.6639,0.6644,0.6641,0.6644,0.6637,0.6637,0.6637,0.6637,0.6637,0.6792,0.6787,0.6777,0.6767,0.676,0.6751,0.6745,0.6736,0.6726,0.6713,0.6707,0.6695,0.6682,0.6662,0.6654,0.6643,0.6641,0.6639,0.6638,0.6638,0.6639,0.6646,0.664,0.664,0.664,0.664,0.664,0,0.6789,0.6783,0.6774,0.6762,0.6754,0.6751,0.674,0.6733,0.6724,0.6713,0.6703,0.669,0.6677,0.6664,0.6651,0.6645,0.6642,0.6642,0.6642,0.664,0.6641,0.6644,0.6645,0.6645,0.6645,0.6645,0.6645,0.6645,0.6787,0.6777,0.6772,0.6759,0.6752,0.6742,0.6736,0.6728,0.672,0.6705,0.6696,0.6688,0.6677,0.6663,0.6651,0.6647,0.6643,0.6644,0.6639,0.664,0.664,0.664,0.6642,0.6643,0.6643,0.6639,0.6639,0.6639]},{"header":{"parameterUnit":"m.s-1","parameterCategory":1,"la1":30.2991,"la2":30.254,"lo1":-89.0895,"lo2":-89.0444,"dy":0.0017,"dx":0.0017,"nx":28,"ny":28,"refTime":"2025-11-12T03:00:00:Z","depth":0,"parameterNumber":3,"parameterNumberName":"V-component_of_WINDS"},"data":[0,0,0,0,0,0,0,0,0,0,0,0,0,0,0,0,0,0,0,0,0,0,0,0,0,0,0,0,0,0,0,0,0,0,0,0,0,0,0,0,0,0,0,0,0,0,0,0,0,0,0,0,0,0,0,0,0,0,-1.6517,-1.6518,0,-1.6582,-1.6583,-1.6584,-1.6555,-1.6553,-1.6552,-1.655,-1.6614,-1.6617,-1.662,0,0,0,0,0,0,0,0,0,0,0,0,0,-1.6367,-1.637,-1.6517,-1.6518,-1.6519,-1.6582,-1.6583,-1.6584,-1.6555,-1.6553,-1.6551,-1.655,-1.6613,-1.6617,-1.662,0,0,0,0,0,0,0,0,0,0,0,0,0,-1.6432,-1.6371,-1.6517,-1.6512,-1.6513,-1.6582,-1.6583,-1.6584,-1.6556,-1.6553,-1.6551,-1.6549,-1.6612,-1.6616,-1.6621,-1.6698,0,0,-1.6635,-1.6637,0,0,0,0,0,0,0,0,-1.6429,-1.6438,-1.6512,-1.6513,-1.6513,-1.6558,-1.6553,-1.6622,-1.6556,-1.6539,-1.655,-1.6548,-1.6597,-1.6603,-1.662,-1.6701,-1.6704,-1.6636,-1.6639,-1.6641,-1.6642,0,0,0,0,0,0,0,-1.6424,-1.6435,-1.6543,-1.6513,-1.6514,-1.6507,-1.6513,-1.6566,-1.6581,-1.6541,-1.6539,-1.6547,-1.6597,-1.6616,-1.6621,-1.6705,-1.6636,-1.664,-1.6643,-1.6645,-1.6855,-1.6857,0,0,0,0,0,0,-1.642,-1.6431,-1.6541,-1.6545,-1.6464,-1.6511,-1.6519,-1.6546,-1.658,-1.6583,-1.6549,-1.6545,-1.6609,-1.6616,-1.6624,-1.6718,-1.6641,-1.6645,-1.6648,-1.6852,-1.6855,-1.6858,0,0,0,0,0,0,-1.6417,-1.643,-1.6538,-1.6488,-1.6501,-1.6516,-1.6547,-1.6549,-1.6567,-1.6586,-1.6588,-1.6566,-1.6607,-1.6617,-1.6681,-1.672,-1.6647,-1.6652,-1.6849,-1.6853,-1.6857,-1.6906,0,0,0,0,0,0,-1.6413,-1.6429,-1.6459,-1.6489,-1.6504,-1.6594,-1.655,-1.6552,-1.6576,-1.6572,-1.6603,-1.6605,-1.6606,-1.6674,-1.6685,-1.6725,-1.6655,-1.6845,-1.6851,-1.6855,-1.6901,-1.6912,-1.692,0,0,0,0,0,-1.6407,-1.6469,-1.646,-1.6474,-1.6541,-1.6597,-1.6605,-1.6606,-1.6579,-1.6609,-1.6622,-1.6604,-1.6714,-1.668,-1.6693,-1.6735,-1.6843,-1.6849,-1.6855,-1.6897,-1.6909,-1.692,0,0,0,0,0,0,-1.6441,-1.6472,-1.6463,-1.6536,-1.6564,-1.6592,-1.6629,-1.6619,-1.6654,-1.6649,-1.6647,-1.6654,-1.672,-1.6734,-1.6696,-1.6813,-1.6774,-1.6783,-1.6802,-1.6814,-1.6823,-1.6819,-1.6659,0,0,0,0,0,-1.6457,-1.65,-1.6525,-1.6587,-1.6602,-1.6614,-1.6638,-1.6636,-1.6664,-1.6676,-1.6693,-1.6721,-1.6761,-1.6788,-1.6826,-1.6903,-1.691,-1.6938,-1.6948,-1.6956,-1.6963,-1.7007,-1.7021,-1.6878,-1.6878,-1.6878,0,0,-1.649,-1.6513,-1.654,-1.6595,-1.6616,-1.6661,-1.6623,-1.6672,-1.6705,-1.6683,-1.6745,-1.6759,-1.6789,-1.6861,-1.6893,-1.6874,-1.7005,-1.6963,-1.6969,-1.6973,-1.7015,-1.7028,-1.704,-1.6882,-1.6882,-1.6881,0,0,-1.6574,-1.6595,-1.665,-1.6673,-1.6707,-1.6715,-1.6729,-1.6759,-1.6767,-1.683,-1.6815,-1.6854,-1.6924,-1.6947,-1.6968,-1.7065,-1.7051,-1.7077,-1.7127,-1.717,-1.7181,-1.7191,-1.7227,-1.724,-1.7085,-1.7085,-1.7085,0,-1.6611,-1.6679,-1.6679,-1.6731,-1.6756,-1.6739,-1.6796,-1.6817,-1.6862,-1.6879,-1.6858,-1.6947,-1.6967,-1.7044,-1.7068,-1.7085,-1.7101,-1.7074,-1.718,-1.719,-1.7199,-1.7233,-1.7247,-1.7088,-1.7088,-1.7087,-1.7087,0,-1.6723,-1.6771,-1.6811,-1.6857,-1.6886,-1.6939,-1.6948,-1.6978,-1.6975,-1.6985,-1.705,-1.7073,-1.7117,-1.7135,-1.7131,-1.7213,-1.7201,-1.718,-1.7141,-1.7216,-1.7248,-1.7261,-1.7093,-1.7091,-1.709,-1.709,0,0,-1.6828,-1.6876,-1.6891,-1.6913,-1.695,-1.6987,-1.704,-1.7085,-1.7111,-1.7142,-1.7188,-1.7248,-1.723,-1.7254,-1.7253,-1.729,-1.7368,-1.7265,-1.7266,-1.7284,-1.7462,-1.7478,-1.7493,-1.7358,-1.7361,-1.7363,-1.746,0,-1.6916,-1.7011,-1.7014,-1.71,-1.7145,-1.7132,-1.7178,-1.7206,-1.7218,-1.7257,-1.7269,-1.7314,-1.7285,-1.73,-1.7336,-1.735,-1.7403,-1.7343,-1.7401,-1.7403,-1.7395,-1.751,-1.7527,-1.7617,-1.7472,-1.7474,-1.7476,0,-1.7031,-1.7069,-1.716,-1.7194,-1.7213,-1.7255,-1.7298,-1.7335,-1.7367,-1.7373,-1.7402,-1.7396,-1.7451,-1.741,-1.7486,-1.7446,-1.7469,-1.748,-1.7484,-1.749,-1.7444,-1.752,-1.7645,-1.7659,-1.7495,-1.7494,-1.7492,0,-1.7101,-1.7174,-1.7239,-1.7258,-1.7298,-1.7329,-1.7347,-1.7377,-1.7404,-1.7441,-1.746,-1.7502,-1.7525,-1.7558,-1.7564,-1.7534,-1.7641,-1.7601,-1.7648,-1.7648,-1.7671,-1.767,-1.7804,-1.7685,-1.7685,-1.7685,-1.7684,0,-1.7199,-1.7256,-1.7272,-1.7311,-1.7375,-1.7379,-1.7442,-1.7457,-1.7485,-1.7528,-1.7518,-1.7558,-1.7563,-1.7605,-1.761,-1.7673,-1.7683,-1.769,-1.7691,-1.7691,-1.7691,-1.7707,-1.7702,-1.7688,-1.7687,-1.7687,-1.7686,0,-1.7288,-1.73,-1.7371,-1.7404,-1.7414,-1.746,-1.7489,-1.7527,-1.7538,-1.7593,-1.7606,-1.7624,-1.7673,-1.7682,-1.7739,-1.7742,-1.7819,-1.7812,-1.7809,-1.7808,-1.7856,-1.7852,-1.8005,-1.8026,-1.7893,-1.7894,-1.7895,0,-1.735,-1.7394,-1.7433,-1.7462,-1.7483,-1.7529,-1.7558,-1.7564,-1.7594,-1.7636,-1.767,-1.7718,-1.7757,-1.7836,-1.7854,-1.7898,-1.7894,-1.7945,-1.79,-1.7901,-1.7896,-1.7894,-1.79,-1.7953,-1.7955,-1.7956,-1.7957,0,-1.746,-1.7465,-1.7507,-1.7554,-1.7589,-1.7625,-1.7659,-1.7683,-1.7693,-1.7728,-1.778,-1.781,-1.787,-1.7919,-1.7964,-1.7982,-1.7972,-1.7971,-1.7985,-1.7986,-1.7983,-1.7987,-1.7833,-1.7967,-1.7966,-1.7965,-1.7965,-1.7964,-1.7538,-1.7577,-1.7612,-1.7661,-1.7688,-1.7721,-1.776,-1.7777,-1.782,-1.7871,-1.7871,-1.7928,-1.7961,-1.802,-1.8042,-1.8086,-1.807,-1.8089,-1.8094,-1.8099,-1.8105,-1.7975,-1.8094,-1.8094,-1.8093,-1.8093,-1.8093,0,-1.7649,-1.7671,-1.7716,-1.7766,-1.7804,-1.7793,-1.7831,-1.7864,-1.7914,-1.7946,-1.7986,-1.8046,-1.8094,-1.8117,-1.8164,-1.8195,-1.8192,-1.8207,-1.8206,-1.821,-1.8115,-1.81,-1.821,-1.821,-1.8209,-1.8209,-1.8209,-1.8209,-1.7711,-1.7778,-1.7787,-1.7868,-1.789,-1.7946,-1.7969,-1.8,-1.8026,-1.8094,-1.8135,-1.815,-1.8179,-1.8228,-1.8272,-1.8278,-1.8296,-1.8314,-1.8318,-1.8228,-1.8217,-1.8205,-1.8191,-1.8318,-1.8318,-1.8409,-1.841,-1.8411]}]]